Regional Weather Roundup
Issued by NWS Lake Charles, LA

Home | Current Version | Previous Version | Text Only | Print | Product List | Glossary On
Versions: 1 2 3 4 5 6 7 8 9 10 11 12 13 14 15 16 17 18 19 20 21 22 23 24 25 26 27 28 29 30 31 32 33 34 35 36 37 38 39 40 41 42 43 44 45 46 47 48 49 50
000
ASUS44 KLCH 251510
RWRLCH
RWRLCH
REGIONAL WEATHER ROUNDUP
NATIONAL WEATHER SERVICE LAKE CHARLES LA
1000 AM CDT SAT APR 25 2015

Note: "fair" indicates few or no clouds below 12,000 feet with no
significant weather and/or obstructions to visibility.


ACROSS SOUTHEAST TEXAS

CITY           SKY/WX    TMP DP  RH WIND       PRES   REMARKS
BEAUMONT       TSTM      70  66  87 NW10      29.83R
BEAUMONT CITY    N/A     69  67  93 CALM      29.84F
ORANGE         RAIN      69  65  88 NW9       29.83R
JASPER         LGT RAIN  73  70  92 S6        29.82F
$$

ACROSS CENTRAL LOUISIANA

CITY           SKY/WX    TMP DP  RH WIND       PRES   REMARKS
LEESVILLE      CLOUDY    72  70  94 SW9       29.79F
FULLERTON      LGT RAIN  76  71  85 CALM      29.77R
ALEXANDRIA INT LGT RAIN  73  70  90 W8G21     29.79R FOG
ESLER FIELD    CLOUDY    75  72  90 W15       29.81R FOG
DERIDDER       CLOUDY    73  71  93 SW10G18   29.83S
OAKDALE        CLOUDY    74  73  94 W5        29.80F FOG
OPELOUSAS      RAIN     N/A N/A N/A SW7       29.81R
$$

ACROSS SOUTHWEST AND SOUTH CENTRAL LOUISIANA

CITY           SKY/WX    TMP DP  RH WIND       PRES   REMARKS
SULPHUR        TSTM      72  69  90 W23G29    29.85R
LAKE CHARLES   TSTM      72  69  90 W14G30    29.84R VSB 1
CHENNAULT INT  TSTM      70  68  94 W8        29.82R
CAMERON PHI    PTSUNNY   75  73  94 NW8       29.85R FOG
DEQUINCY       CLOUDY    72  72 100 W13G18    29.83R
JENNINGS       TSTM      70  67  90 CALM      29.80F
LAFAYETTE      LGT RAIN  76  73  91 NW7       29.80F
NEW IBERIA     CLOUDY    77  73  87 S8        29.79F
ABBEVILLE        N/A     75  74  95 S5        29.80S
PATTERSON      CLOUDY    79  73  83 S8        29.80S
SALT POINT       N/A     77  75  93 VRB7      29.76F
$$

SELECTED SITES ACROSS THE REGION

CITY           SKY/WX    TMP DP  RH WIND       PRES   REMARKS
HOUSTON BUSH   LGT RAIN  68  66  93 SW3       29.80F
HOUSTON HOBBY  TSTM      68  65  90 E3        29.81F
GALVESTON      TSTM      71  71 100 N15       29.84F FOG
COLLEGE STAT   CLOUDY    70  66  87 NW7       29.76F
CONROE         CLOUDY    71  67  87 S8        29.78F
HUNTSVILLE     CLOUDY    73  69  87 SW8       29.78F
LUFKIN         CLOUDY    76  70  82 S9        29.76F HAZE
SHREVEPORT     CLOUDY    76  72  87 W10       29.71S
MONROE         CLOUDY    73  72  96 SW7       29.73S FOG
NATCHEZ MS     CLOUDY    73  70  88 SW3       29.75F
BATON ROUGE    CLOUDY    79  73  82 SW12      29.79R
N.O. INTL ARPT PTSUNNY   82  73  74 S17       29.78F
SLIDELL        MOSUNNY   81  73  76 SW10G17   29.78S
$$

MARINE REPORTS

STATION/POSITION TIME  TEMP    WIND        PRES    VSBY  WAVE
                       AIR SEA DIR/SP/G                  HT/PER
                 (UTC) (F)     (DEG/KT/KT) (MB)    (MI)  (FT/S)
BUOY 30 S HIGH I 1450   68 74  340/ 29/ 35 1008.6R         3/ 5
SEA RIM ST PARK  1500   69     310/  8/  9 1011.7R
PORT ARTHUR      1400      73   CALM  /  7 1008.9F
SABINE PASS N    1400   75 75  160/  2/  3 1008.6F
TEXAS POINT      NOT AVBL
CALCASIEU PASS   1400   76 77  220/  5/  5   N/A
LK CHARLES BEACH 1406   74 72              1009.3F
MARSH ISLAND     NOT AVBL
FRESH WATER LOCK 1406   76 78  150/  9/ 11 1008.3R
AMERADA PASS     1406   76 70  170/  3/  8 1008.8F
$$



USA.gov is the U.S. government's official web portal to all federal, state and local government web resources and services.